STARLINK-34110, 63811

Orbit data source: Space-Track

STARLINK-34110, 63811 is a payload satellite owned by SpaceX/Seattle (US) in LEO that was launched on Sun, 04 May 2025 UTC via an FALCON 9 launch vehicle from the Air Force Eastern Test Range (AFETR). Payload-class satellites include a variety of spacecraft equipped with specific instruments for various scientific and technological missions. These include communications satellites like Starlink; space stations such as the ISS; scientific satellites like the Hubble; Earth observation satellites from companies like Planet Labs, Umbra, and HawkEye 360; GPS; miniature CubeSats for education and research; and military/defense satellites.

Loading next visibility...
Identifier
63811, 2025-092H
Orbit
LEO
Last TLE update
16 hours ago
Origin
Manufacturer
SpaceX/Seattle
Mission
Operational spacecraft
Bus & Motor
STARLINK V2MO, Unknown motor
Mass
575 kg wet, ~530 kg dry
Launch date (UTC)
2025-05-04 (1 week ago)
Launch vehicle
FALCON 9
Launch site
Air Force Eastern Test Range (AFETR)
Object type
Payload
Rocket body
Debris
Shape & HBR
Unknown
Radar Cross Section
Medium (>0.1 m² and <1 m²)

Expand to show TLE details & history

TLE from 16 hours ago
0 STARLINK-34110
1 63811U 25092H   25132.91668981 -.00891786  00000-0 -33059-2 0  9991
2 63811  43.0007  80.1692 0001656 255.2810  52.2161 15.89140909  2546
Epoch: 2025-05-12T22:00Z
Definitive object data (Epoch: 2025-05-12T22:00:01.999Z)
Latitude
-32.93112°
Longitude
-164.44236°
Altitude
313.15 km
Speed
7.721 km/s
True Right ascension
02h 25m 57s
True Declination
-32° 45' 50"
Sunlit
Object was in daylight at TLE epoch
Visualization TLE readout
Latitude
-40.88211°
Longitude
122.39478°
Altitude
319.433 km
Speed
7.718 km/s
Apparent Right ascension
16h 34m 38s
Apparent Declination
-79° 03' 28"
Sunlit
Object is in daylight
Visualization observer readout
Local Sidereal Time
22:48:11
Azimuth
194.255° SSW
Elevation
-39.687°
Doppler factor
1
Orbital elements
Apogee altitude
307.794 km
Perigee altitude
305.58 km
Semi-major axis
6,684.824 km
Eccentricity
0.0001656
Inclination
43.0007°
RAAN
80.1692°
Arg. of periapsis
255.281°
True anomaly
52.2311°
Mean anomaly
52.2161°
Eccentric anomaly
52.2236°
Mean motion
3.97108 °/min
BSTAR
-0.0033059
Orbital period
90.66 mins
Loading maneuver chart data...
Loading SW <> Apogee altitude chart data...
Loading historical data...
Loading historical data...
Loading historical data...
Loading historical data...
Loading historical data...
Loading historical data...
Loading historical data...

STARLINK-34110 Visibility forecast

Observer location: undefined°, undefined°

Span
Click to sort rows by Start time (UTC) header in descending order
Start Az.
Max El. time (UTC)
Max El. Az.
Max El.
End time (UTC)
End Az.
4 mins2025-05-14 00:07:16.597Z228.513° WSW2025-05-14 00:09:16.597Z129.121° SE36.762°2025-05-14 00:11:16.597Z79.948° E
|